Regional Weather Roundup
Issued by NWS Charleston, WV

Home | Current Version | Previous Version | Graphics & Text | Print | Product List | Glossary On
Versions: 1 2 3 4 5 6 7 8 9 10 11 12 13 14 15 16 17 18 19 20 21 22 23 24 25 26 27 28 29 30 31 32 33 34 35 36 37 38 39 40 41 42 43 44 45 46 47 48 49 50
564
ASUS41 KRLX 251510
RWRRLX
West Virginia Regional Weather Roundup
National Weather Service Charleston WV
1100 AM EDT THU AUG 25 2016

Note: "fair" indicates few or no clouds below 12,000 feet with no
significant weather and/or obstructions to visibility.

WVZ003-251600-
Northern Panhandle of West Virginia

CITY           SKY/WX    TMP DP  RH WIND       PRES   REMARKS
WHEELING       PTSUNNY   80  71  74 SW8       30.09F
$$

WVZ009-251600-
Northwest West Virginia

CITY           SKY/WX    TMP DP  RH WIND       PRES   REMARKS
PARKERSBURG    CLOUDY    80  73  79 SW7       30.13S
$$

WVZ006-251600-
Western West Virginia

CITY           SKY/WX    TMP DP  RH WIND       PRES   REMARKS
HUNTINGTON     SUNNY     83  73  72 S8        30.12F
$$

WVZ015-251600-
West Central West Virginia

CITY           SKY/WX    TMP DP  RH WIND       PRES   REMARKS
CHARLESTON     PTSUNNY   82  71  69 SW7       30.14S
$$

WVZ022-031-251600-
North Central West Virginia

CITY           SKY/WX    TMP DP  RH WIND       PRES   REMARKS
CLARKSBURG     CLOUDY    76  72  87 S5        30.14S
MORGANTOWN     CLOUDY    77  71  82 S8        30.14F
$$

WVZ025-035-042-045-251600-
Southern West Virginia

CITY           SKY/WX    TMP DP  RH WIND       PRES   REMARKS
BECKLEY        CLOUDY    74  68  81 SW6       30.25S
LOGAN            N/A     77  73  88 CALM      30.19S
BLUEFIELD      CLOUDY    72  68  87 W7        30.29S
LEWISBURG      PTSUNNY   76  69  78 W5        30.23F
$$

WVZ047-251600-
Northern Mountains of West Virginia

CITY           SKY/WX    TMP DP  RH WIND       PRES   REMARKS
ELKINS         CLOUDY    75  69  81 W3        30.20S
$$

WVZ052-251600-
Eastern Panhandle of West Virginia

CITY           SKY/WX    TMP DP  RH WIND       PRES   REMARKS
MARTINSBURG    CLOUDY    80  70  71 S6        30.09R
PETERSBURG     LGT RAIN  74  71  90 CALM      30.13R
$$




USA.gov is the U.S. government's official web portal to all federal, state and local government web resources and services.